Home > Weather > Mödling > Past weeks

Flag for Austria Past Weather in Mödling, Lower Austria, Austria — Yesterday and Last 2 Weeks

Now
69 °F

Mild.


Feels Like: 69 °F
Forecast: 59 / 71 °F
Wind: 1 mph from Northwest

Location: Wien / Hohe Warte

Current Time: Jul 31, 2016 at 3:46:42 AM

Latest Report: Jul 31, 2016 at 3:00 AM


Visibility: N/A

Pressure: 29.89 "Hg

Humidity: 81%

Dew Point: 63 °F

Location of MödlingLocation

Past Weather in Mödling — Graph

°F

Mödling Temperature Yesterday

Maximum temperature yesterday: 89 °F (at 5:00 PM)
Minimum temperature yesterday: 64 °F (at 6:00 AM)
Average temperature yesterday: 77 °F

High & Low Weather Summary for the Past Weeks

 TemperatureHumidityPressure
High89 °F (Jul 30, 5:00 PM)96% (Jul 23, 6:00 AM)30.22 "Hg (Jul 23, 6:00 AM)
Low57 °F (Jul 17, 5:00 AM)33% (Jul 30, 4:00 PM)29.88 "Hg (Jul 30, 7:00 PM)
Average73 °F67%30.02 "Hg
* Reported Jul 16 1:00 AM — Jul 31 1:00 AM, Mödling, Weather by CustomWeather, © 2016

Note: Actual official high and low records may vary slightly from our data, if they occured in-between our weather recording intervals... More about our weather records

Advertising

Mödling Weather History for the Previous 24 Hours

Scroll right to see more
 ConditionsComfort  
Time TempWeatherWind HumidityBarometerVisibility
1:00 AM
Sun, Jul 31
70 °FMild.1 mph79%29.91 "HgN/A
12:00 AM73 °FMild.3 mph72%29.92 "HgN/A
11:00 PM
Sat, Jul 30
74 °FPassing clouds.2 mph70%29.91 "Hg12 mi
10:00 PM77 °FPassing clouds.2 mph64%29.90 "Hg12 mi
9:00 PM81 °FPassing clouds.5 mph54%29.89 "Hg31 mi
8:00 PM84 °FPassing clouds.3 mph48%29.88 "Hg31 mi
7:00 PM87 °FPassing clouds.3 mph36%29.88 "Hg31 mi
6:00 PM88 °FPassing clouds.3 mph34%29.88 "Hg31 mi
5:00 PM89 °FPassing clouds.5 mph33%29.89 "Hg31 mi
4:00 PM89 °FPassing clouds.5 mph33%29.88 "Hg31 mi
3:00 PM89 °FPassing clouds.5 mph34%29.89 "Hg40 mi
2:00 PM87 °FPassing clouds.5 mph38%29.91 "Hg40 mi
1:00 PM86 °FPassing clouds.5 mph39%29.93 "Hg37 mi
12:00 PM85 °FPassing clouds.3 mph43%29.94 "Hg37 mi
11:00 AM82 °FPassing clouds.3 mph49%29.95 "Hg37 mi
10:00 AM78 °FPassing clouds.1 mph54%29.96 "Hg34 mi
9:00 AM75 °FPassing clouds.2 mph64%29.97 "Hg28 mi
8:00 AM72 °FPassing clouds.1 mph72%29.97 "Hg31 mi
7:00 AM67 °FPassing clouds.1 mph78%29.97 "Hg31 mi
6:00 AM64 °FPassing clouds.No wind84%29.98 "Hg31 mi
5:00 AM65 °FMild.2 mph80%29.97 "HgN/A
4:00 AM65 °FMild.1 mph85%29.98 "HgN/A
3:00 AM66 °FMild.1 mph80%29.98 "HgN/A
Weather by CustomWeather, © 2016

See weather overviewHow to use our weather pages